Location: Hamayl? Da??
(36.7028°N, 30.1716°E)
Time: 00:03:11
(UTC+00:00)

Vanguard 1 - Pass Details

Date: 16 December 2025
Orbit: 651 x 3820 km, 34.2° (Epoch: 15 January)

Event Time Altitude Azimuth Distance (km) Brightness Sun altitude
Rises 15:28:54 0° 263° (W) 5,885 15.8 -8.8°
Reaches altitude 10° 15:36:29 10° 238° (WSW) 5,621 15.4 -10.2°
Maximum altitude 15:42:16 12° 218° (SW) 5,874 15.0 -11.3°
Drops below altitude 10° 15:48:51 10° 199° (SSW) 6,490 14.8 -12.5°
Sets 16:00:09 0° 175° (S) 7,906 14.9 -14.7°
